Time,TemperatureF,DewpointF,PressureIn,WindDirection,WindDirectionDegrees,WindSpeedMPH,WindSpeedGustMPH,Humidity,HourlyPrecipIn,Conditions,Clouds,dailyrainin,SoftwareType,DateUTC
2013-03-30 00:00:00,39.1,28.0,30.07,North,4,0.0,0.0,64,0.00,,FEW100,0.00,VWS V14.01,2013-03-30 04:00:00,
2013-03-30 00:02:00,38.9,27.8,30.07,North,4,0.0,0.0,64,0.00,,FEW100,0.00,VWS V14.01,2013-03-30 04:02:00,
2013-03-30 00:07:00,38.3,27.6,30.07,North,4,0.0,0.0,65,0.00,,FEW100,0.00,VWS V14.01,2013-03-30 04:07:00,
2013-03-30 00:12:00,37.8,27.5,30.07,North,4,0.0,0.0,66,0.00,,FEW100,0.00,VWS V14.01,2013-03-30 04:12:00,
2013-03-30 00:17:00,37.5,27.5,30.07,North,4,0.0,0.0,67,0.00,,FEW100,0.00,VWS V14.01,2013-03-30 04:17:00,
2013-03-30 00:22:00,37.2,27.3,30.07,North,4,0.0,0.0,67,0.00,,FEW100,0.00,VWS V14.01,2013-03-30 04:22:00,
2013-03-30 00:27:00,37.0,27.4,30.07,North,4,0.0,0.0,68,0.00,,FEW100,0.00,VWS V14.01,2013-03-30 04:27:00,
2013-03-30 00:32:00,37.0,27.4,30.07,North,4,0.0,0.0,68,0.00,,FEW100,0.00,VWS V14.01,2013-03-30 04:32:00,
2013-03-30 00:37:00,37.0,27.8,30.07,North,4,0.0,0.0,69,0.00,,CLR,0.00,VWS V14.01,2013-03-30 04:37:00,
2013-03-30 00:42:00,37.2,27.6,30.07,North,4,0.0,0.0,68,0.00,,CLR,0.00,VWS V14.01,2013-03-30 04:42:00,
2013-03-30 00:47:00,37.0,27.4,30.07,North,4,0.0,1.0,68,0.00,,CLR,0.00,VWS V14.01,2013-03-30 04:47:00,
2013-03-30 00:52:00,36.9,27.7,30.07,North,4,0.0,0.0,69,0.00,,CLR,0.00,VWS V14.01,2013-03-30 04:52:00,
2013-03-30 00:57:00,36.6,27.4,30.07,North,4,0.0,0.0,69,0.00,,CLR,0.00,VWS V14.01,2013-03-30 04:57:00,
2013-03-30 01:02:00,36.5,27.7,30.07,North,4,0.0,0.0,70,0.00,,CLR,0.00,VWS V14.01,2013-03-30 05:02:00,
2013-03-30 01:07:00,35.6,27.1,30.07,North,4,0.0,0.0,71,0.00,,CLR,0.00,VWS V14.01,2013-03-30 05:07:00,
2013-03-30 01:12:00,35.0,27.2,30.07,North,4,0.0,0.0,73,0.00,,CLR,0.00,VWS V14.01,2013-03-30 05:12:00,
2013-03-30 01:17:00,34.6,26.9,30.07,North,4,0.0,0.0,73,0.00,,CLR,0.00,VWS V14.01,2013-03-30 05:17:00,
2013-03-30 01:22:00,34.3,26.6,30.07,North,4,0.0,0.0,73,0.00,,CLR,0.00,VWS V14.01,2013-03-30 05:22:00,
2013-03-30 01:27:00,33.8,26.1,30.07,North,4,0.0,0.0,73,0.00,,CLR,0.00,VWS V14.01,2013-03-30 05:27:00,
2013-03-30 01:32:00,33.4,25.7,30.08,North,4,0.0,0.0,73,0.00,,CLR,0.00,VWS V14.01,2013-03-30 05:32:00,
2013-03-30 01:37:00,33.1,26.0,30.08,North,4,0.0,0.0,75,0.00,,CLR,0.00,VWS V14.01,2013-03-30 05:37:00,
2013-03-30 01:42:00,32.9,26.2,30.08,North,4,0.0,0.0,76,0.00,,CLR,0.00,VWS V14.01,2013-03-30 05:42:00,
2013-03-30 01:47:00,33.1,26.7,30.07,North,4,0.0,0.0,77,0.00,,CLR,0.00,VWS V14.01,2013-03-30 05:47:00,
2013-03-30 01:52:00,33.4,27.0,30.07,North,4,0.0,0.0,77,0.00,,CLR,0.00,VWS V14.01,2013-03-30 05:52:00,
2013-03-30 01:57:00,34.1,27.0,30.07,North,4,0.0,0.0,75,0.00,,CLR,0.00,VWS V14.01,2013-03-30 05:57:00,
2013-03-30 02:02:00,34.3,27.2,30.07,North,4,0.0,0.0,75,0.00,,CLR,0.00,VWS V14.01,2013-03-30 06:02:00,
2013-03-30 02:07:00,34.1,26.7,30.07,North,4,0.0,0.0,74,0.00,,CLR,0.00,VWS V14.01,2013-03-30 06:07:00,
2013-03-30 02:13:00,34.0,26.6,30.07,North,4,0.0,0.0,74,0.00,,CLR,0.00,VWS V14.01,2013-03-30 06:13:00,
2013-03-30 02:17:00,33.5,26.4,30.07,North,4,0.0,0.0,75,0.00,,CLR,0.00,VWS V14.01,2013-03-30 06:17:00,
2013-03-30 02:23:00,32.7,26.0,30.07,North,4,0.0,0.0,76,0.00,,CLR,0.00,VWS V14.01,2013-03-30 06:23:00,
2013-03-30 02:28:00,31.9,25.5,30.07,North,4,0.0,0.0,77,0.00,,CLR,0.00,VWS V14.01,2013-03-30 06:28:00,
2013-03-30 02:33:00,31.5,25.4,30.07,North,4,0.0,0.0,78,0.00,,CLR,0.00,VWS V14.01,2013-03-30 06:33:00,
2013-03-30 02:38:00,31.2,25.5,30.07,North,4,0.0,0.0,79,0.00,,CLR,0.00,VWS V14.01,2013-03-30 06:38:00,
2013-03-30 02:43:00,31.0,25.6,30.07,North,4,0.0,0.0,80,0.00,,CLR,0.00,VWS V14.01,2013-03-30 06:43:00,
2013-03-30 02:48:00,31.0,25.9,30.07,North,4,0.0,0.0,81,0.00,,CLR,0.00,VWS V14.01,2013-03-30 06:48:00,
2013-03-30 02:53:00,31.0,25.9,30.07,North,4,0.0,0.0,81,0.00,,CLR,0.00,VWS V14.01,2013-03-30 06:53:00,
2013-03-30 02:58:00,31.2,26.4,30.07,North,4,0.0,0.0,82,0.00,,CLR,0.00,VWS V14.01,2013-03-30 06:58:00,
2013-03-30 03:03:00,31.5,26.6,30.07,North,4,0.0,0.0,82,0.00,,CLR,0.00,VWS V14.01,2013-03-30 07:03:00,
2013-03-30 03:08:00,31.5,26.4,30.07,North,4,0.0,0.0,81,0.00,,CLR,0.00,VWS V14.01,2013-03-30 07:08:00,
2013-03-30 03:13:00,31.3,26.2,30.07,North,4,0.0,0.0,81,0.00,,CLR,0.00,VWS V14.01,2013-03-30 07:13:00,
2013-03-30 03:18:00,31.2,26.1,30.07,North,4,0.0,0.0,81,0.00,,CLR,0.00,VWS V14.01,2013-03-30 07:18:00,
2013-03-30 03:23:00,31.0,25.9,30.07,North,4,0.0,0.0,81,0.00,,CLR,0.00,VWS V14.01,2013-03-30 07:23:00,
2013-03-30 03:28:00,30.9,25.8,30.07,North,4,0.0,0.0,81,0.00,,CLR,0.00,VWS V14.01,2013-03-30 07:28:00,
2013-03-30 03:33:00,31.0,26.2,30.07,North,4,0.0,0.0,82,0.00,,CLR,0.00,VWS V14.01,2013-03-30 07:33:00,
2013-03-30 03:38:00,31.0,26.2,30.07,North,4,0.0,0.0,82,0.00,,CLR,0.00,VWS V14.01,2013-03-30 07:38:00,
2013-03-30 03:43:00,31.2,26.4,30.07,North,4,0.0,0.0,82,0.00,,CLR,0.00,VWS V14.01,2013-03-30 07:43:00,
2013-03-30 03:48:00,31.0,26.2,30.07,North,4,0.0,0.0,82,0.00,,CLR,0.00,VWS V14.01,2013-03-30 07:48:00,
2013-03-30 03:53:00,30.7,25.9,30.07,North,4,0.0,0.0,82,0.00,,CLR,0.00,VWS V14.01,2013-03-30 07:53:00,
2013-03-30 03:58:00,30.6,25.8,30.07,North,4,0.0,0.0,82,0.00,,CLR,0.00,VWS V14.01,2013-03-30 07:58:00,
2013-03-30 04:03:00,30.3,25.5,30.07,North,4,0.0,0.0,82,0.00,,CLR,0.00,VWS V14.01,2013-03-30 08:03:00,
2013-03-30 04:08:00,30.0,25.2,30.07,North,4,0.0,0.0,82,0.00,,CLR,0.00,VWS V14.01,2013-03-30 08:08:00,
2013-03-30 04:13:00,29.8,25.0,30.07,North,4,0.0,0.0,82,0.00,,CLR,0.00,VWS V14.01,2013-03-30 08:13:00,
2013-03-30 04:18:00,29.7,24.9,30.07,North,4,0.0,0.0,82,0.00,,CLR,0.00,VWS V14.01,2013-03-30 08:18:00,
2013-03-30 04:23:00,29.5,25.0,30.07,North,4,0.0,0.0,83,0.00,,CLR,0.00,VWS V14.01,2013-03-30 08:23:00,
2013-03-30 04:28:00,29.4,24.9,30.07,North,4,0.0,0.0,83,0.00,,CLR,0.00,VWS V14.01,2013-03-30 08:28:00,
2013-03-30 04:33:00,29.3,24.8,30.07,North,4,0.0,0.0,83,0.00,,CLR,0.00,VWS V14.01,2013-03-30 08:33:00,
2013-03-30 04:38:00,29.1,24.9,30.07,North,4,0.0,0.0,84,0.00,,CLR,0.00,VWS V14.01,2013-03-30 08:38:00,
2013-03-30 04:43:00,29.1,24.9,30.07,North,4,0.0,0.0,84,0.00,,CLR,0.00,VWS V14.01,2013-03-30 08:43:00,
2013-03-30 04:48:00,29.0,24.8,30.07,North,4,0.0,0.0,84,0.00,,CLR,0.00,VWS V14.01,2013-03-30 08:48:00,
2013-03-30 04:53:00,29.1,25.2,30.07,North,4,0.0,0.0,85,0.00,,CLR,0.00,VWS V14.01,2013-03-30 08:53:00,
2013-03-30 04:58:00,29.0,25.1,30.07,North,4,0.0,0.0,85,0.00,,CLR,0.00,VWS V14.01,2013-03-30 08:58:00,
2013-03-30 05:03:00,29.0,25.1,30.07,North,4,0.0,0.0,85,0.00,,CLR,0.00,VWS V14.01,2013-03-30 09:03:00,
2013-03-30 05:08:00,29.0,25.1,30.07,North,4,0.0,0.0,85,0.00,,CLR,0.00,VWS V14.01,2013-03-30 09:08:00,
2013-03-30 05:13:00,28.8,24.9,30.07,North,4,0.0,0.0,85,0.00,,CLR,0.00,VWS V14.01,2013-03-30 09:13:00,
2013-03-30 05:18:00,28.7,24.8,30.07,North,4,0.0,0.0,85,0.00,,CLR,0.00,VWS V14.01,2013-03-30 09:18:00,
2013-03-30 05:23:00,28.8,25.1,30.07,North,4,0.0,0.0,86,0.00,,CLR,0.00,VWS V14.01,2013-03-30 09:23:00,
2013-03-30 05:28:00,28.7,25.0,30.07,North,4,0.0,0.0,86,0.00,,CLR,0.00,VWS V14.01,2013-03-30 09:28:00,
2013-03-30 05:33:00,28.7,25.0,30.08,North,4,0.0,0.0,86,0.00,,CLR,0.00,VWS V14.01,2013-03-30 09:33:00,
2013-03-30 05:34:00,28.7,25.0,30.08,North,4,0.0,0.0,86,0.00,,CLR,0.00,VWS V14.01,2013-03-30 09:34:00,
2013-03-30 05:39:00,28.7,25.0,30.08,North,4,0.0,0.0,86,0.00,,CLR,0.00,VWS V14.01,2013-03-30 09:39:00,
2013-03-30 05:44:00,28.7,25.0,30.08,North,4,0.0,0.0,86,0.00,,CLR,0.00,VWS V14.01,2013-03-30 09:44:00,
2013-03-30 05:49:00,28.7,25.0,30.08,North,4,0.0,0.0,86,0.00,,CLR,0.00,VWS V14.01,2013-03-30 09:49:00,
2013-03-30 05:54:00,28.7,25.0,30.08,North,4,0.0,0.0,86,0.00,,CLR,0.00,VWS V14.01,2013-03-30 09:54:00,
2013-03-30 05:59:00,28.5,24.9,30.08,North,4,0.0,0.0,86,0.00,,CLR,0.00,VWS V14.01,2013-03-30 09:59:00,
2013-03-30 06:04:00,28.2,24.6,30.08,North,4,0.0,0.0,86,0.00,,CLR,0.00,VWS V14.01,2013-03-30 10:04:00,
2013-03-30 06:09:00,27.9,24.3,30.08,North,4,0.0,1.0,86,0.00,,CLR,0.00,VWS V14.01,2013-03-30 10:09:00,
2013-03-30 06:14:00,27.6,24.0,30.08,North,4,0.0,1.0,86,0.00,,CLR,0.00,VWS V14.01,2013-03-30 10:14:00,
2013-03-30 06:19:00,27.8,24.2,30.08,North,4,0.0,0.0,86,0.00,,CLR,0.00,VWS V14.01,2013-03-30 10:19:00,
2013-03-30 06:24:00,27.8,24.4,30.08,North,4,0.0,0.0,87,0.00,,CLR,0.00,VWS V14.01,2013-03-30 10:24:00,
2013-03-30 06:29:00,27.8,24.4,30.08,North,4,0.0,0.0,87,0.00,,CLR,0.00,VWS V14.01,2013-03-30 10:29:00,
2013-03-30 06:34:00,27.9,24.5,30.08,North,4,0.0,0.0,87,0.00,,CLR,0.00,VWS V14.01,2013-03-30 10:34:00,
2013-03-30 06:39:00,27.9,24.5,30.08,North,4,1.0,1.0,87,0.00,,CLR,0.00,VWS V14.01,2013-03-30 10:39:00,
2013-03-30 06:44:00,27.9,24.3,30.08,North,4,0.0,1.0,86,0.00,,CLR,0.00,VWS V14.01,2013-03-30 10:44:00,
2013-03-30 06:49:00,28.1,24.7,30.09,North,4,0.0,1.0,87,0.00,,CLR,0.00,VWS V14.01,2013-03-30 10:49:00,
2013-03-30 06:54:00,28.2,24.8,30.09,North,4,0.0,0.0,87,0.00,,CLR,0.00,VWS V14.01,2013-03-30 10:54:00,
2013-03-30 06:59:00,28.4,24.8,30.09,North,4,0.0,0.0,86,0.00,,CLR,0.00,VWS V14.01,2013-03-30 10:59:00,
2013-03-30 07:04:00,28.4,24.8,30.09,North,4,0.0,0.0,86,0.00,,CLR,0.00,VWS V14.01,2013-03-30 11:04:00,
2013-03-30 07:09:00,28.4,24.8,30.09,North,4,0.0,0.0,86,0.00,,CLR,0.00,VWS V14.01,2013-03-30 11:09:00,
2013-03-30 07:14:00,28.1,24.5,30.09,North,4,0.0,0.0,86,0.00,,CLR,0.00,VWS V14.01,2013-03-30 11:14:00,
2013-03-30 07:19:00,27.9,24.3,30.09,North,4,0.0,0.0,86,0.00,,CLR,0.00,VWS V14.01,2013-03-30 11:19:00,
2013-03-30 07:24:00,27.9,24.3,30.09,North,4,0.0,0.0,86,0.00,,CLR,0.00,VWS V14.01,2013-03-30 11:24:00,
2013-03-30 07:29:00,28.1,24.7,30.09,North,4,0.0,0.0,87,0.00,,CLR,0.00,VWS V14.01,2013-03-30 11:29:00,
2013-03-30 07:34:00,28.5,25.1,30.10,North,4,0.0,1.0,87,0.00,,CLR,0.00,VWS V14.01,2013-03-30 11:34:00,
2013-03-30 07:39:00,29.3,25.9,30.10,North,4,0.0,1.0,87,0.00,,CLR,0.00,VWS V14.01,2013-03-30 11:39:00,
2013-03-30 07:44:00,30.1,26.7,30.10,NNW,344,0.0,1.0,87,0.00,,CLR,0.00,VWS V14.01,2013-03-30 11:44:00,
2013-03-30 07:49:00,30.9,27.5,30.10,NNW,344,0.0,1.0,87,0.00,,CLR,0.00,VWS V14.01,2013-03-30 11:49:00,
2013-03-30 07:54:00,31.5,27.8,30.10,NW,316,0.0,1.0,86,0.00,,CLR,0.00,VWS V14.01,2013-03-30 11:54:00,
2013-03-30 07:59:00,32.2,28.2,30.10,NW,313,1.0,1.0,85,0.00,,CLR,0.00,VWS V14.01,2013-03-30 11:59:00,
2013-03-30 08:04:00,32.9,28.6,30.10,NW,313,1.0,1.0,84,0.00,,CLR,0.00,VWS V14.01,2013-03-30 12:04:00,
2013-03-30 08:09:00,33.2,28.3,30.10,NW,305,0.0,1.0,82,0.00,,CLR,0.00,VWS V14.01,2013-03-30 12:09:00,
2013-03-30 08:14:00,34.0,28.8,30.10,WNW,301,0.0,1.0,81,0.00,,CLR,0.00,VWS V14.01,2013-03-30 12:14:00,
2013-03-30 08:19:00,34.6,28.8,30.11,WNW,301,0.0,1.0,79,0.00,,CLR,0.00,VWS V14.01,2013-03-30 12:19:00,
2013-03-30 08:24:00,35.2,29.0,30.11,West,271,0.0,1.0,78,0.00,,CLR,0.00,VWS V14.01,2013-03-30 12:24:00,
2013-03-30 08:29:00,35.8,29.3,30.11,West,263,1.0,2.0,77,0.00,,CLR,0.00,VWS V14.01,2013-03-30 12:29:00,
2013-03-30 08:34:00,36.3,29.5,30.10,West,266,0.0,0.0,76,0.00,,CLR,0.00,VWS V14.01,2013-03-30 12:34:00,
2013-03-30 08:39:00,36.9,29.4,30.10,West,264,0.0,1.0,74,0.00,,CLR,0.00,VWS V14.01,2013-03-30 12:39:00,
2013-03-30 08:44:00,37.3,29.8,30.10,West,264,0.0,1.0,74,0.00,,CLR,0.00,VWS V14.01,2013-03-30 12:44:00,
2013-03-30 08:49:00,38.3,30.4,30.10,WNW,299,0.0,0.0,73,0.00,,CLR,0.00,VWS V14.01,2013-03-30 12:49:00,
2013-03-30 08:54:00,39.2,30.2,30.10,WNW,292,1.0,1.0,70,0.00,,CLR,0.00,VWS V14.01,2013-03-30 12:54:00,
2013-03-30 08:59:00,39.8,30.1,30.10,WNW,283,1.0,4.0,68,0.00,,CLR,0.00,VWS V14.01,2013-03-30 12:59:00,
2013-03-30 09:04:00,40.6,30.5,30.11,WNW,300,0.0,0.0,67,0.00,,CLR,0.00,VWS V14.01,2013-03-30 13:04:00,
2013-03-30 09:09:00,41.5,30.6,30.11,WNW,291,0.0,4.0,65,0.00,,CLR,0.00,VWS V14.01,2013-03-30 13:09:00,
2013-03-30 09:14:00,42.1,30.4,30.11,West,269,1.0,3.0,63,0.00,,CLR,0.00,VWS V14.01,2013-03-30 13:14:00,
2013-03-30 09:19:00,42.8,30.7,30.11,West,273,0.0,4.0,62,0.00,,CLR,0.00,VWS V14.01,2013-03-30 13:19:00,
2013-03-30 09:24:00,43.3,30.8,30.11,WNW,292,0.0,1.0,61,0.00,,CLR,0.00,VWS V14.01,2013-03-30 13:24:00,
2013-03-30 09:29:00,43.8,30.8,30.11,WNW,290,0.0,5.0,60,0.00,,CLR,0.00,VWS V14.01,2013-03-30 13:29:00,
2013-03-30 09:34:00,44.1,30.3,30.11,WNW,297,1.0,5.0,58,0.00,,CLR,0.00,VWS V14.01,2013-03-30 13:34:00,
2013-03-30 09:39:00,44.5,30.7,30.11,NW,321,0.0,4.0,58,0.00,,CLR,0.00,VWS V14.01,2013-03-30 13:39:00,
2013-03-30 09:44:00,44.9,30.6,30.11,NW,316,4.0,4.0,57,0.00,,CLR,0.00,VWS V14.01,2013-03-30 13:44:00,
2013-03-30 09:49:00,45.2,30.5,30.11,WSW,258,5.0,5.0,56,0.00,,CLR,0.00,VWS V14.01,2013-03-30 13:49:00,
2013-03-30 09:54:00,45.4,30.6,30.11,NW,311,2.0,3.0,56,0.00,,CLR,0.00,VWS V14.01,2013-03-30 13:54:00,
2013-03-30 09:59:00,45.8,30.6,30.11,WNW,293,1.0,5.0,55,0.00,,CLR,0.00,VWS V14.01,2013-03-30 13:59:00,
2013-03-30 10:04:00,46.1,31.3,30.11,West,266,5.0,5.0,56,0.00,,CLR,0.00,VWS V14.01,2013-03-30 14:04:00,
2013-03-30 10:09:00,46.7,31.0,30.11,WNW,299,5.0,6.0,54,0.00,,CLR,0.00,VWS V14.01,2013-03-30 14:09:00,
2013-03-30 10:14:00,47.0,31.2,30.11,WSW,250,6.0,6.0,54,0.00,,CLR,0.00,VWS V14.01,2013-03-30 14:14:00,
2013-03-30 10:19:00,47.6,30.9,30.11,WNW,294,0.0,7.0,52,0.00,,CLR,0.00,VWS V14.01,2013-03-30 14:19:00,
2013-03-30 10:24:00,47.7,30.0,30.11,WSW,252,0.0,0.0,50,0.00,,CLR,0.00,VWS V14.01,2013-03-30 14:24:00,
2013-03-30 10:29:00,48.2,30.9,30.11,North,7,0.0,2.0,51,0.00,,CLR,0.00,VWS V14.01,2013-03-30 14:29:00,
2013-03-30 10:34:00,48.8,31.0,30.11,WNW,292,2.0,6.0,50,0.00,,CLR,0.00,VWS V14.01,2013-03-30 14:34:00,
2013-03-30 10:39:00,48.8,30.5,30.11,WSW,247,2.0,4.0,49,0.00,,CLR,0.00,VWS V14.01,2013-03-30 14:39:00,
2013-03-30 10:44:00,48.9,30.1,30.11,NNE,27,0.0,2.0,48,0.00,,CLR,0.00,VWS V14.01,2013-03-30 14:44:00,
2013-03-30 10:49:00,49.4,30.5,30.10,WNW,283,0.0,5.0,48,0.00,,CLR,0.00,VWS V14.01,2013-03-30 14:49:00,
2013-03-30 10:54:00,49.9,31.5,30.10,WNW,300,5.0,7.0,49,0.00,,CLR,0.00,VWS V14.01,2013-03-30 14:54:00,
2013-03-30 10:59:00,50.2,29.7,30.10,NW,311,3.0,5.0,45,0.00,,CLR,0.00,VWS V14.01,2013-03-30 14:59:00,
2013-03-30 11:04:00,50.5,30.0,30.10,NW,318,0.0,5.0,45,0.00,,CLR,0.00,VWS V14.01,2013-03-30 15:04:00,
2013-03-30 11:09:00,50.4,28.8,30.10,North,0,0.0,5.0,43,0.00,,CLR,0.00,VWS V14.01,2013-03-30 15:09:00,
2013-03-30 11:14:00,50.2,29.1,30.10,NW,307,0.0,4.0,44,0.00,,CLR,0.00,VWS V14.01,2013-03-30 15:14:00,
2013-03-30 11:19:00,50.1,30.1,30.10,WNW,300,3.0,6.0,46,0.00,,CLR,0.00,VWS V14.01,2013-03-30 15:19:00,
2013-03-30 11:24:00,50.2,30.2,30.10,NW,316,0.0,3.0,46,0.00,,CLR,0.00,VWS V14.01,2013-03-30 15:24:00,
2013-03-30 11:29:00,51.0,30.4,30.10,NW,309,2.0,4.0,45,0.00,,CLR,0.00,VWS V14.01,2013-03-30 15:29:00,
2013-03-30 11:34:00,50.5,28.9,30.10,WNW,297,1.0,2.0,43,0.00,,CLR,0.00,VWS V14.01,2013-03-30 15:34:00,
2013-03-30 11:39:00,50.4,28.2,30.10,West,281,6.0,8.0,42,0.00,,CLR,0.00,VWS V14.01,2013-03-30 15:39:00,
2013-03-30 11:44:00,50.4,27.0,30.10,NW,317,1.0,3.0,40,0.00,,CLR,0.00,VWS V14.01,2013-03-30 15:44:00,
2013-03-30 11:49:00,50.7,28.5,30.10,NNW,328,0.0,7.0,42,0.00,,CLR,0.00,VWS V14.01,2013-03-30 15:49:00,
2013-03-30 11:54:00,51.1,27.6,30.10,North,354,4.0,7.0,40,0.00,,CLR,0.00,VWS V14.01,2013-03-30 15:54:00,
2013-03-30 11:59:00,51.9,26.5,30.10,North,0,6.0,6.0,37,0.00,,CLR,0.00,VWS V14.01,2013-03-30 15:59:00,
2013-03-30 12:04:00,52.2,26.1,30.09,NW,308,2.0,5.0,36,0.00,,CLR,0.00,VWS V14.01,2013-03-30 16:04:00,
2013-03-30 12:09:00,52.8,26.6,30.09,North,11,8.0,8.0,36,0.00,,CLR,0.00,VWS V14.01,2013-03-30 16:09:00,
2013-03-30 12:14:00,53.3,27.7,30.09,WNW,292,5.0,8.0,37,0.00,,CLR,0.00,VWS V14.01,2013-03-30 16:14:00,
2013-03-30 12:19:00,52.3,28.1,30.09,West,267,5.0,6.0,39,0.00,,CLR,0.00,VWS V14.01,2013-03-30 16:19:00,
2013-03-30 12:24:00,52.0,26.5,30.09,NW,307,0.0,5.0,37,0.00,,CLR,0.00,VWS V14.01,2013-03-30 16:24:00,
2013-03-30 12:29:00,51.7,25.6,30.09,West,267,6.0,9.0,36,0.00,,CLR,0.00,VWS V14.01,2013-03-30 16:29:00,
2013-03-30 12:34:00,52.6,27.1,30.08,West,269,8.0,8.0,37,0.00,,CLR,0.00,VWS V14.01,2013-03-30 16:34:00,
2013-03-30 12:39:00,52.8,25.9,30.08,West,269,4.0,6.0,35,0.00,,CLR,0.00,VWS V14.01,2013-03-30 16:39:00,
2013-03-30 12:44:00,53.2,26.3,30.08,West,262,5.0,11.0,35,0.00,,CLR,0.00,VWS V14.01,2013-03-30 16:44:00,
2013-03-30 12:49:00,53.6,25.9,30.07,West,259,6.0,7.0,34,0.00,,CLR,0.00,VWS V14.01,2013-03-30 16:49:00,
2013-03-30 12:54:00,54.4,29.3,30.07,WSW,249,5.0,7.0,38,0.00,,CLR,0.00,VWS V14.01,2013-03-30 16:54:00,
2013-03-30 12:59:00,54.1,23.4,30.07,WNW,286,0.0,6.0,30,0.00,,CLR,0.00,VWS V14.01,2013-03-30 16:59:00,
2013-03-30 13:04:00,54.4,25.2,30.07,West,260,6.0,9.0,32,0.00,,CLR,0.00,VWS V14.01,2013-03-30 17:04:00,
2013-03-30 13:09:00,54.7,25.4,30.07,West,263,6.0,7.0,32,0.00,,CLR,0.00,VWS V14.01,2013-03-30 17:09:00,
2013-03-30 13:14:00,54.7,26.2,30.07,WNW,283,7.0,7.0,33,0.00,,CLR,0.00,VWS V14.01,2013-03-30 17:14:00,
2013-03-30 13:19:00,54.7,23.1,30.06,West,259,8.0,11.0,29,0.00,,CLR,0.00,VWS V14.01,2013-03-30 17:19:00,
2013-03-30 13:24:00,54.1,23.4,30.06,West,262,6.0,8.0,30,0.00,,CLR,0.00,VWS V14.01,2013-03-30 17:24:00,
2013-03-30 13:29:00,53.8,23.9,30.06,West,262,6.0,8.0,31,0.00,,CLR,0.00,VWS V14.01,2013-03-30 17:29:00,
2013-03-30 13:34:00,53.3,24.2,30.06,NW,320,2.0,5.0,32,0.00,,CLR,0.00,VWS V14.01,2013-03-30 17:34:00,
2013-03-30 13:39:00,53.6,20.5,30.06,North,0,0.0,5.0,27,0.00,,SCT060,0.00,VWS V14.01,2013-03-30 17:39:00,
2013-03-30 13:44:00,54.4,24.4,30.06,SSW,212,2.0,7.0,31,0.00,,SCT060,0.00,VWS V14.01,2013-03-30 17:44:00,
2013-03-30 13:49:00,55.1,23.4,30.04,West,259,7.0,10.0,29,0.00,,SCT060,0.00,VWS V14.01,2013-03-30 17:49:00,
2013-03-30 13:54:00,54.4,24.4,30.04,NW,304,4.0,8.0,31,0.00,,SCT060,0.00,VWS V14.01,2013-03-30 17:54:00,
2013-03-30 13:59:00,54.8,24.8,30.04,WNW,302,5.0,7.0,31,0.00,,FEW060,0.00,VWS V14.01,2013-03-30 17:59:00,
2013-03-30 14:04:00,55.1,27.3,30.04,NW,307,4.0,7.0,34,0.00,,FEW060,0.00,VWS V14.01,2013-03-30 18:04:00,
2013-03-30 14:09:00,54.5,22.9,30.04,WNW,290,7.0,10.0,29,0.00,,FEW060,0.00,VWS V14.01,2013-03-30 18:09:00,
2013-03-30 14:14:00,54.7,24.7,30.04,West,263,9.0,11.0,31,0.00,,FEW060,0.00,VWS V14.01,2013-03-30 18:14:00,
2013-03-30 14:19:00,55.1,23.4,30.04,WNW,289,0.0,2.0,29,0.00,,FEW060,0.00,VWS V14.01,2013-03-30 18:19:00,
2013-03-30 14:24:00,55.4,24.5,30.04,NW,304,4.0,6.0,30,0.00,,FEW060,0.00,VWS V14.01,2013-03-30 18:24:00,
2013-03-30 14:29:00,55.9,28.0,30.04,WNW,283,5.0,8.0,34,0.00,,FEW060,0.00,VWS V14.01,2013-03-30 18:29:00,
2013-03-30 14:34:00,55.6,24.7,30.03,SSW,198,4.0,8.0,30,0.00,,FEW060,0.00,VWS V14.01,2013-03-30 18:34:00,
2013-03-30 14:39:00,55.4,22.0,30.03,NNW,333,1.0,6.0,27,0.00,,SCT070,0.00,VWS V14.01,2013-03-30 18:39:00,
2013-03-30 14:44:00,55.7,25.5,30.03,West,278,11.0,11.0,31,0.00,,SCT070,0.00,VWS V14.01,2013-03-30 18:44:00,
2013-03-30 14:49:00,55.3,25.2,30.03,West,275,4.0,9.0,31,0.00,,SCT070,0.00,VWS V14.01,2013-03-30 18:49:00,
2013-03-30 14:54:00,55.7,24.0,30.03,WNW,288,7.0,8.0,29,0.00,,SCT070,0.00,VWS V14.01,2013-03-30 18:54:00,
2013-03-30 14:59:00,55.9,25.7,30.03,WNW,288,6.0,8.0,31,0.00,,BKN070,0.00,VWS V14.01,2013-03-30 18:59:00,
2013-03-30 15:04:00,56.0,25.8,30.03,West,281,7.0,7.0,31,0.00,,BKN070,0.00,VWS V14.01,2013-03-30 19:04:00,
2013-03-30 15:09:00,56.0,24.2,30.03,WNW,290,2.0,10.0,29,0.00,,BKN070,0.00,VWS V14.01,2013-03-30 19:09:00,
2013-03-30 15:14:00,55.3,24.4,30.03,West,270,7.0,8.0,30,0.00,,BKN070,0.00,VWS V14.01,2013-03-30 19:14:00,
2013-03-30 15:19:00,55.7,26.3,30.03,WNW,288,7.0,7.0,32,0.00,,BKN070,0.00,VWS V14.01,2013-03-30 19:19:00,
2013-03-30 15:24:00,56.2,25.2,30.03,West,262,2.0,9.0,30,0.00,,BKN070,0.00,VWS V14.01,2013-03-30 19:24:00,
2013-03-30 15:29:00,56.3,24.5,30.03,WNW,297,4.0,7.0,29,0.00,,BKN070,0.00,VWS V14.01,2013-03-30 19:29:00,
2013-03-30 15:34:00,56.2,22.7,30.02,SW,235,4.0,9.0,27,0.00,,BKN070,0.00,VWS V14.01,2013-03-30 19:34:00,
2013-03-30 15:39:00,56.5,22.9,30.02,West,276,5.0,10.0,27,0.00,,FEW080,0.00,VWS V14.01,2013-03-30 19:39:00,
2013-03-30 15:44:00,55.9,25.7,30.02,WNW,286,10.0,10.0,31,0.00,,FEW080,0.00,VWS V14.01,2013-03-30 19:44:00,
2013-03-30 15:49:00,56.2,25.2,30.02,WNW,283,5.0,5.0,30,0.00,,FEW080,0.00,VWS V14.01,2013-03-30 19:49:00,
2013-03-30 15:54:00,56.5,23.8,30.02,WSW,252,4.0,15.0,28,0.00,,FEW080,0.00,VWS V14.01,2013-03-30 19:54:00,
2013-03-30 15:59:00,56.3,24.5,30.02,SW,229,10.0,11.0,29,0.00,,FEW080,0.00,VWS V14.01,2013-03-30 19:59:00,
2013-03-30 16:04:00,56.6,25.5,30.01,WNW,292,2.0,8.0,30,0.00,,FEW080,0.00,VWS V14.01,2013-03-30 20:04:00,
2013-03-30 16:09:00,56.9,25.0,30.01,WSW,247,6.0,9.0,29,0.00,,FEW080,0.00,VWS V14.01,2013-03-30 20:09:00,
2013-03-30 16:15:00,56.6,23.9,30.01,West,263,5.0,9.0,28,0.00,,FEW080,0.00,VWS V14.01,2013-03-30 20:15:00,
2013-03-30 16:20:00,56.9,25.0,30.01,SW,225,7.0,8.0,29,0.00,,FEW080,0.00,VWS V14.01,2013-03-30 20:20:00,
2013-03-30 16:25:00,56.7,24.0,30.01,WSW,248,11.0,12.0,28,0.00,,FEW080,0.00,VWS V14.01,2013-03-30 20:25:00,
2013-03-30 16:30:00,56.9,24.1,30.01,SW,233,8.0,9.0,28,0.00,,FEW080,0.00,VWS V14.01,2013-03-30 20:30:00,
2013-03-30 16:35:00,57.0,24.2,30.01,WSW,252,7.0,10.0,28,0.00,,FEW080,0.00,VWS V14.01,2013-03-30 20:35:00,
2013-03-30 16:40:00,57.0,24.2,30.01,West,268,9.0,9.0,28,0.00,,SCT080,0.00,VWS V14.01,2013-03-30 20:40:00,
2013-03-30 16:45:00,56.9,25.0,30.01,NW,313,4.0,10.0,29,0.00,,SCT080,0.00,VWS V14.01,2013-03-30 20:45:00,
2013-03-30 16:49:00,57.3,24.5,30.01,NW,309,2.0,5.0,28,0.00,,SCT080,0.00,VWS V14.01,2013-03-30 20:49:00,
2013-03-30 16:54:00,57.2,24.4,30.01,NW,317,1.0,6.0,28,0.00,,SCT080,0.00,VWS V14.01,2013-03-30 20:54:00,
2013-03-30 16:59:00,57.5,24.7,30.01,NW,309,3.0,7.0,28,0.00,,SCT080,0.00,VWS V14.01,2013-03-30 20:59:00,
2013-03-30 17:04:00,57.2,23.5,30.01,West,271,3.0,7.0,27,0.00,,SCT080,0.00,VWS V14.01,2013-03-30 21:04:00,
2013-03-30 17:09:00,56.6,23.0,30.01,West,264,4.0,10.0,27,0.00,,SCT080,0.00,VWS V14.01,2013-03-30 21:09:00,
2013-03-30 17:14:00,56.5,23.8,30.01,WNW,289,6.0,12.0,28,0.00,,SCT080,0.00,VWS V14.01,2013-03-30 21:14:00,
2013-03-30 17:19:00,56.2,23.5,30.01,NW,312,6.0,10.0,28,0.00,,SCT080,0.00,VWS V14.01,2013-03-30 21:19:00,
2013-03-30 17:25:00,56.0,23.4,30.01,SW,230,1.0,5.0,28,0.00,,SCT080,0.00,VWS V14.01,2013-03-30 21:25:00,
2013-03-30 17:30:00,55.9,23.3,30.01,SW,235,9.0,12.0,28,0.00,,SCT080,0.00,VWS V14.01,2013-03-30 21:30:00,
2013-03-30 17:35:00,56.2,24.4,30.01,West,269,8.0,8.0,29,0.00,,SCT080,0.00,VWS V14.01,2013-03-30 21:35:00,
2013-03-30 17:40:00,56.3,23.6,30.01,NW,308,5.0,7.0,28,0.00,,CLR,0.00,VWS V14.01,2013-03-30 21:40:00,
2013-03-30 17:45:00,56.5,23.8,30.01,WSW,249,6.0,8.0,28,0.00,,CLR,0.00,VWS V14.01,2013-03-30 21:45:00,
2013-03-30 17:50:00,56.5,23.8,30.01,NW,311,4.0,10.0,28,0.00,,CLR,0.00,VWS V14.01,2013-03-30 21:50:00,
2013-03-30 17:55:00,55.9,22.4,30.01,WNW,299,2.0,4.0,27,0.00,,CLR,0.00,VWS V14.01,2013-03-30 21:55:00,
2013-03-30 18:00:00,55.9,22.4,30.01,West,264,5.0,12.0,27,0.00,,CLR,0.00,VWS V14.01,2013-03-30 22:00:00,
2013-03-30 18:05:00,55.6,23.0,30.01,West,262,6.0,8.0,28,0.00,,CLR,0.00,VWS V14.01,2013-03-30 22:05:00,
2013-03-30 18:10:00,55.6,23.0,30.01,WNW,297,0.0,4.0,28,0.00,,CLR,0.00,VWS V14.01,2013-03-30 22:10:00,
2013-03-30 18:15:00,55.4,23.7,30.01,NNW,347,5.0,6.0,29,0.00,,CLR,0.00,VWS V14.01,2013-03-30 22:15:00,
2013-03-30 18:20:00,55.4,23.7,30.01,WNW,289,1.0,2.0,29,0.00,,CLR,0.00,VWS V14.01,2013-03-30 22:20:00,
2013-03-30 18:25:00,55.3,24.4,30.01,WNW,292,1.0,6.0,30,0.00,,CLR,0.00,VWS V14.01,2013-03-30 22:25:00,
2013-03-30 18:30:00,55.3,23.6,30.01,West,274,4.0,5.0,29,0.00,,CLR,0.00,VWS V14.01,2013-03-30 22:30:00,
2013-03-30 18:35:00,55.1,23.4,30.01,WNW,302,2.0,4.0,29,0.00,,CLR,0.00,VWS V14.01,2013-03-30 22:35:00,
2013-03-30 18:40:00,54.8,22.3,30.01,WSW,248,2.0,8.0,28,0.00,,CLR,0.00,VWS V14.01,2013-03-30 22:40:00,
2013-03-30 18:45:00,54.4,22.8,30.01,WSW,248,3.0,3.0,29,0.00,,CLR,0.00,VWS V14.01,2013-03-30 22:45:00,
2013-03-30 18:50:00,54.2,23.5,30.01,NW,315,0.0,4.0,30,0.00,,CLR,0.00,VWS V14.01,2013-03-30 22:50:00,
2013-03-30 18:55:00,54.1,22.6,30.01,WSW,244,9.0,9.0,29,0.00,,CLR,0.00,VWS V14.01,2013-03-30 22:55:00,
2013-03-30 18:59:00,53.8,22.3,30.01,WSW,252,1.0,5.0,29,0.00,,CLR,0.00,VWS V14.01,2013-03-30 22:59:00,
2013-03-30 19:04:00,53.6,22.9,30.01,West,272,4.0,5.0,30,0.00,,CLR,0.00,VWS V14.01,2013-03-30 23:04:00,
2013-03-30 19:10:00,53.2,23.4,30.01,WNW,283,0.0,2.0,31,0.00,,CLR,0.00,VWS V14.01,2013-03-30 23:10:00,
2013-03-30 19:15:00,52.9,23.9,30.01,West,278,2.0,5.0,32,0.00,,CLR,0.00,VWS V14.01,2013-03-30 23:15:00,
2013-03-30 19:20:00,52.6,24.3,30.01,West,278,0.0,3.0,33,0.00,,CLR,0.00,VWS V14.01,2013-03-30 23:20:00,
2013-03-30 19:25:00,52.0,24.5,30.01,West,278,0.0,2.0,34,0.00,,CLR,0.00,VWS V14.01,2013-03-30 23:25:00,
2013-03-30 19:30:00,51.4,24.0,30.01,West,278,1.0,1.0,34,0.00,,CLR,0.00,VWS V14.01,2013-03-30 23:30:00,
2013-03-30 19:35:00,51.1,24.4,30.01,West,278,0.0,2.0,35,0.00,,CLR,0.00,VWS V14.01,2013-03-30 23:35:00,
2013-03-30 19:40:00,50.7,24.1,30.01,West,278,0.0,0.0,35,0.00,,CLR,0.00,VWS V14.01,2013-03-30 23:40:00,
2013-03-30 19:45:00,50.1,24.9,30.01,West,278,0.0,0.0,37,0.00,,CLR,0.00,VWS V14.01,2013-03-30 23:45:00,
2013-03-30 19:50:00,49.5,24.3,30.02,West,278,0.0,0.0,37,0.00,,CLR,0.00,VWS V14.01,2013-03-30 23:50:00,
2013-03-30 19:55:00,48.9,24.4,30.02,West,278,0.0,0.0,38,0.00,,CLR,0.00,VWS V14.01,2013-03-30 23:55:00,
2013-03-30 20:00:00,48.5,24.7,30.02,West,278,0.0,0.0,39,0.00,,CLR,0.00,VWS V14.01,2013-03-31 00:00:00,
2013-03-30 20:05:00,48.2,25.0,30.02,West,278,0.0,0.0,40,0.00,,CLR,0.00,VWS V14.01,2013-03-31 00:05:00,
2013-03-30 20:10:00,47.7,24.6,30.02,West,278,0.0,0.0,40,0.00,,CLR,0.00,VWS V14.01,2013-03-31 00:10:00,
2013-03-30 20:15:00,47.3,24.8,30.02,West,278,0.0,0.0,41,0.00,,CLR,0.00,VWS V14.01,2013-03-31 00:15:00,
2013-03-30 20:20:00,47.0,25.1,30.02,West,278,0.0,0.0,42,0.00,,CLR,0.00,VWS V14.01,2013-03-31 00:20:00,
2013-03-30 20:25:00,47.0,25.1,30.02,West,278,0.0,0.0,42,0.00,,CLR,0.00,VWS V14.01,2013-03-31 00:25:00,
2013-03-30 20:30:00,46.7,24.8,30.02,West,278,0.0,0.0,42,0.00,,CLR,0.00,VWS V14.01,2013-03-31 00:30:00,
2013-03-30 20:35:00,46.5,25.2,30.03,West,278,0.0,0.0,43,0.00,,CLR,0.00,VWS V14.01,2013-03-31 00:35:00,
2013-03-30 20:40:00,46.4,25.1,30.03,West,278,0.0,0.0,43,0.00,,CLR,0.00,VWS V14.01,2013-03-31 00:40:00,
2013-03-30 20:45:00,46.2,25.0,30.03,West,278,0.0,0.0,43,0.00,,CLR,0.00,VWS V14.01,2013-03-31 00:45:00,
2013-03-30 20:50:00,46.2,25.5,30.03,West,278,0.0,0.0,44,0.00,,CLR,0.00,VWS V14.01,2013-03-31 00:50:00,
2013-03-30 20:55:00,46.1,25.4,30.03,West,278,0.0,0.0,44,0.00,,CLR,0.00,VWS V14.01,2013-03-31 00:55:00,
2013-03-30 21:00:00,46.0,24.8,30.03,West,278,0.0,0.0,43,0.00,,CLR,0.00,VWS V14.01,2013-03-31 01:00:00,
2013-03-30 21:05:00,46.0,24.8,30.03,West,278,0.0,0.0,43,0.00,,CLR,0.00,VWS V14.01,2013-03-31 01:05:00,
2013-03-30 21:10:00,45.7,24.5,30.03,West,278,0.0,0.0,43,0.00,,CLR,0.00,VWS V14.01,2013-03-31 01:10:00,
2013-03-30 21:15:00,45.5,25.4,30.03,West,278,0.0,0.0,45,0.00,,CLR,0.00,VWS V14.01,2013-03-31 01:15:00,
2013-03-30 21:20:00,45.2,25.1,30.03,West,278,0.0,0.0,45,0.00,,CLR,0.00,VWS V14.01,2013-03-31 01:20:00,
2013-03-30 21:25:00,44.9,25.4,30.03,West,278,0.0,0.0,46,0.00,,CLR,0.00,VWS V14.01,2013-03-31 01:25:00,
2013-03-30 21:30:00,44.5,24.5,30.03,West,278,0.0,0.0,45,0.00,,CLR,0.00,VWS V14.01,2013-03-31 01:30:00,
2013-03-30 21:35:00,44.3,24.8,30.04,West,278,0.0,0.0,46,0.00,,CLR,0.00,VWS V14.01,2013-03-31 01:35:00,
2013-03-30 21:40:00,44.1,25.2,30.04,West,278,0.0,0.0,47,0.00,,CLR,0.00,VWS V14.01,2013-03-31 01:40:00,
2013-03-30 21:45:00,43.9,25.0,30.04,West,278,0.0,0.0,47,0.00,,CLR,0.00,VWS V14.01,2013-03-31 01:45:00,
2013-03-30 21:50:00,43.8,25.9,30.04,West,278,0.0,0.0,49,0.00,,CLR,0.00,VWS V14.01,2013-03-31 01:50:00,
2013-03-30 21:55:00,43.3,26.4,30.04,West,278,0.0,0.0,51,0.00,,CLR,0.00,VWS V14.01,2013-03-31 01:55:00,
2013-03-30 22:00:00,42.9,26.0,30.04,West,278,0.0,0.0,51,0.00,,CLR,0.00,VWS V14.01,2013-03-31 02:00:00,
2013-03-30 22:05:00,42.8,25.9,30.05,West,278,0.0,0.0,51,0.00,,CLR,0.00,VWS V14.01,2013-03-31 02:05:00,
2013-03-30 22:10:00,42.6,25.3,30.05,West,278,0.0,0.0,50,0.00,,CLR,0.00,VWS V14.01,2013-03-31 02:10:00,
2013-03-30 22:15:00,42.5,25.7,30.05,West,278,0.0,0.0,51,0.00,,CLR,0.00,VWS V14.01,2013-03-31 02:15:00,
2013-03-30 22:20:00,42.6,25.3,30.05,West,278,0.0,0.0,50,0.00,,CLR,0.00,VWS V14.01,2013-03-31 02:20:00,
2013-03-30 22:25:00,42.9,24.6,30.05,West,278,0.0,0.0,48,0.00,,CLR,0.00,VWS V14.01,2013-03-31 02:25:00,
2013-03-30 22:30:00,43.2,24.9,30.05,West,278,0.0,0.0,48,0.00,,CLR,0.00,VWS V14.01,2013-03-31 02:30:00,
2013-03-30 22:35:00,43.3,24.4,30.05,West,278,0.0,0.0,47,0.00,,CLR,0.00,VWS V14.01,2013-03-31 02:35:00,
2013-03-30 22:40:00,43.3,24.4,30.05,West,278,0.0,0.0,47,0.00,,CLR,0.00,VWS V14.01,2013-03-31 02:40:00,
2013-03-30 22:45:00,43.1,24.8,30.05,West,278,0.0,0.0,48,0.00,,CLR,0.00,VWS V14.01,2013-03-31 02:45:00,
2013-03-30 22:50:00,42.8,25.0,30.04,West,278,0.0,0.0,49,0.00,,CLR,0.00,VWS V14.01,2013-03-31 02:50:00,
2013-03-30 22:55:00,42.6,24.8,30.04,West,278,0.0,0.0,49,0.00,,CLR,0.00,VWS V14.01,2013-03-31 02:55:00,
2013-03-30 23:00:00,42.3,25.5,30.04,West,278,0.0,0.0,51,0.00,,CLR,0.00,VWS V14.01,2013-03-31 03:00:00,
2013-03-30 23:05:00,42.1,24.3,30.04,West,278,0.0,0.0,49,0.00,,CLR,0.00,VWS V14.01,2013-03-31 03:05:00,
2013-03-30 23:10:00,42.1,24.3,30.04,West,278,0.0,0.0,49,0.00,,CLR,0.00,VWS V14.01,2013-03-31 03:10:00,
2013-03-30 23:15:00,42.1,24.8,30.04,West,278,0.0,0.0,50,0.00,,CLR,0.00,VWS V14.01,2013-03-31 03:15:00,
2013-03-30 23:20:00,41.9,25.1,30.04,West,278,0.0,0.0,51,0.00,,CLR,0.00,VWS V14.01,2013-03-31 03:20:00,
2013-03-30 23:25:00,41.6,24.8,30.04,West,278,0.0,0.0,51,0.00,,CLR,0.00,VWS V14.01,2013-03-31 03:25:00,
2013-03-30 23:30:00,41.6,24.8,30.04,West,278,0.0,0.0,51,0.00,,CLR,0.00,VWS V14.01,2013-03-31 03:30:00,
2013-03-30 23:35:00,41.3,25.0,30.04,West,278,0.0,0.0,52,0.00,,CLR,0.00,VWS V14.01,2013-03-31 03:35:00,
2013-03-30 23:40:00,41.3,24.5,30.04,West,278,0.0,0.0,51,0.00,,CLR,0.00,VWS V14.01,2013-03-31 03:40:00,
2013-03-30 23:45:00,41.5,25.2,30.04,West,278,0.0,0.0,52,0.00,,CLR,0.00,VWS V14.01,2013-03-31 03:45:00,
2013-03-30 23:50:00,41.5,24.3,30.04,West,278,0.0,0.0,50,0.00,,CLR,0.00,VWS V14.01,2013-03-31 03:50:00,
2013-03-30 23:55:00,41.6,24.8,30.04,West,278,0.0,0.0,51,0.00,,CLR,0.00,VWS V14.01,2013-03-31 03:55:00,